Terminal Aerodrome Forecast
Issued by NWS Charleston, WV

Home | Current Version | Previous Version | Text Only | Print | Product List | Glossary On
Versions: 1 2 3 4 5 6 7 8 9 10 11 12 13 14 15 16 17 18 19 20 21 22 23 24 25
000
FTUS41 KRLX 022329
TAFEKN
TAF
KEKN 022329Z 0300/0324 00000KT P6SM SCT250
     FM031000 00000KT 5SM BR SCT100
     FM031300 24008KT P6SM SCT100
     FM031600 24008G16KT P6SM SCT050
     FM032300 23008KT P6SM SCT040 BKN080=

USA.gov is the U.S. government's official web portal to all federal, state and local government web resources and services.